Weather History for KONL - May, 2014

Change the Weather History Date:

Sunday, May 11, 2014

  Actual Average Record
Temperature  
Mean Temperature 52 °F -  
Max Temperature 57 °F 70 °F 89 °F (1958)
Min Temperature 45 °F 45 °F 27 °F (1979)
Degree Days  
Heating Degree Days 13    
Growing Degree Days 2 (Base 50)    
Moisture  
Dew Point 44 °F    
Average Humidity 79    
Maximum Humidity 90    
Minimum Humidity 50    
Precipitation  
Precipitation 0.10 in - - ()
Sea Level Pressure  
Sea Level Pressure 29.84 in    
Wind  
Wind Speed 15 mph (North)    
Max Wind Speed 30 mph    
Max Gust Speed 38 mph    
Visibility 9 miles    
Events Rain , Thunderstorm    
Averages and records for this station are not official NWS values.
T = Trace of Precipitation, MM = Missing Value Source: NWS Daily Summary

Daily Weather History Graph

Daily Weather History Graph

Search for Another Location

Airport or City:

Trip Planner

Search our weather history database for the weather conditions in past years. The results will help you decide how hot, cold, wet, or windy it might be!

Date:

Astronomy

May. 11, 2014 Rise Set
Actual Time 6:17 AM CDT 8:45 PM CDT
Civil Twilight 5:45 AM CDT 9:17 PM CDT
Nautical Twilight 5:05 AM CDT 9:57 PM CDT
Astronomical Twilight 4:21 AM CDT 10:42 PM CDT
Moon 5:39 PM CDT (5/11) 4:27 AM CDT (5/11)
Length of Visible Light 15h 32m
Length of Day
14h 28m
Waxing Gibbous, 89% of the Moon is Illuminated
May 11
Waxing Gibbous
May 14
Full
May 21
Last Quarter
May 28
New
Jun 5
First Quarter

Hourly Weather History & Observations

Time (CDT) Temp. Windchill Dew Point Humidity Pressure Visibility Wind Dir Wind Speed Gust Speed Precip Events Conditions
12:15 AM 58.3 °F - 39.7 °F 50% 29.82 in 10.0 mi NE 9.2 mph - N/A   Clear
12:35 AM 57.6 °F - 40.5 °F 53% 29.83 in 10.0 mi NE 10.4 mph - N/A   Scattered Clouds
12:55 AM 57.4 °F - 40.6 °F 54% 29.83 in 10.0 mi NE 10.4 mph - N/A   Scattered Clouds
1:15 AM 57.2 °F - 41.0 °F 55% 29.84 in 10.0 mi NNE 10.4 mph - N/A   Scattered Clouds
1:35 AM 57.2 °F - 41.0 °F 55% 29.85 in 10.0 mi North 13.8 mph - N/A   Mostly Cloudy
1:55 AM 56.7 °F - 41.2 °F 56% 29.85 in 10.0 mi NNE 12.7 mph - N/A   Overcast
2:15 AM 55.9 °F - 41.5 °F 58% 29.85 in 10.0 mi NE 15.0 mph - N/A Rain Light Rain
2:35 AM 55.4 °F - 41.9 °F 60% 29.88 in 10.0 mi NE 9.2 mph - N/A   Light Drizzle
2:55 AM 55.2 °F - 42.8 °F 63% 29.88 in 10.0 mi ENE 10.4 mph - N/A Rain Light Rain
3:15 AM 54.0 °F - 43.9 °F 69% 29.89 in 10.0 mi NE 10.4 mph - N/A   Light Drizzle
3:35 AM 53.6 °F - 44.1 °F 70% 29.87 in 10.0 mi NNE 10.4 mph - N/A Rain Rain
3:55 AM 53.6 °F - 42.8 °F 67% 29.86 in 10.0 mi NNE 12.7 mph - N/A   Scattered Clouds
4:15 AM 53.1 °F - 43.0 °F 69% 29.85 in 10.0 mi North 13.8 mph - N/A   Clear
4:35 AM 51.8 °F - 43.3 °F 73% 29.85 in 10.0 mi North 11.5 mph - N/A   Clear
4:55 AM 51.4 °F - 43.7 °F 75% 29.84 in 10.0 mi North 15.0 mph 19.6 mph N/A   Clear
5:15 AM 51.1 °F - 44.2 °F 77% 29.84 in 10.0 mi North 15.0 mph 23.0 mph N/A   Scattered Clouds
5:35 AM 51.3 °F - 44.8 °F 78% 29.84 in 10.0 mi North 16.1 mph 24.2 mph N/A   Mostly Cloudy
5:55 AM 50.2 °F - 45.0 °F 82% 29.83 in 10.0 mi North 16.1 mph 25.3 mph N/A   Mostly Cloudy
6:15 AM 50.4 °F - 45.0 °F 82% 29.84 in 10.0 mi North 16.1 mph - N/A   Mostly Cloudy
6:35 AM 50.0 °F - 45.5 °F 85% 29.86 in 10.0 mi North 10.4 mph 19.6 mph N/A   Overcast
6:55 AM 50.0 °F - 44.6 °F 82% 29.87 in 10.0 mi North 10.4 mph - N/A   Overcast
7:15 AM 49.6 °F - 45.5 °F 86% 29.87 in 10.0 mi NNE 9.2 mph - N/A   Overcast
7:35 AM 49.6 °F - 45.7 °F 86% 29.89 in 10.0 mi North 9.2 mph - N/A   Overcast
7:55 AM 49.6 °F - 45.1 °F 84% 29.90 in 10.0 mi NNE 15.0 mph - N/A   Overcast
8:15 AM 49.5 °F - 44.6 °F 83% 29.90 in 10.0 mi North 10.4 mph - N/A   Overcast
8:35 AM 50.4 °F - 45.0 °F 82% 29.88 in 10.0 mi North 16.1 mph - N/A   Overcast
8:55 AM 50.5 °F - 44.6 °F 80% 29.87 in 10.0 mi NNE 19.6 mph 23.0 mph N/A   Mostly Cloudy
9:15 AM 50.4 °F - 43.3 °F 77% 29.88 in 10.0 mi NNE 20.7 mph 26.5 mph N/A   Overcast
9:35 AM 50.7 °F - 43.5 °F 76% 29.87 in 10.0 mi NNE 19.6 mph 27.6 mph N/A   Overcast
9:55 AM 51.8 °F - 43.9 °F 74% 29.87 in 10.0 mi NNE 20.7 mph - N/A   Overcast
10:15 AM 50.9 °F - 43.3 °F 75% 29.86 in 10.0 mi NNE 18.4 mph 26.5 mph N/A   Overcast
10:35 AM 50.5 °F - 43.3 °F 76% 29.85 in 10.0 mi North 17.3 mph 23.0 mph N/A   Overcast
10:55 AM 50.9 °F - 43.7 °F 76% 29.85 in 10.0 mi North 19.6 mph 24.2 mph N/A   Overcast
11:15 AM 51.1 °F - 43.9 °F 76% 29.85 in 10.0 mi North 19.6 mph 27.6 mph N/A   Overcast
11:35 AM 51.4 °F - 44.1 °F 76% 29.85 in 10.0 mi North 19.6 mph 25.3 mph N/A   Overcast
11:55 AM 51.3 °F - 44.1 °F 76% 29.84 in 10.0 mi North 20.7 mph 27.6 mph N/A   Overcast
12:15 PM 51.4 °F - 44.6 °F 77% 29.84 in 10.0 mi North 20.7 mph 25.3 mph N/A   Overcast
12:35 PM 50.9 °F - 44.6 °F 79% 29.85 in 10.0 mi North 18.4 mph 26.5 mph N/A   Overcast
12:55 PM 50.4 °F - 45.1 °F 82% 29.83 in 10.0 mi North 19.6 mph 24.2 mph N/A Rain Light Rain
1:15 PM 49.6 °F - 45.7 °F 86% 29.82 in 7.0 mi North 17.3 mph 27.6 mph N/A Rain Light Rain
1:35 PM 50.0 °F - 45.5 °F 85% 29.83 in 10.0 mi North 18.4 mph 24.2 mph N/A   Overcast
1:55 PM 50.0 °F - 45.5 °F 85% 29.82 in 10.0 mi North 21.9 mph 27.6 mph N/A   Overcast
2:15 PM 49.6 °F - 45.5 °F 86% 29.82 in 7.0 mi North 18.4 mph 26.5 mph N/A Thunderstorm Overcast
2:35 PM 49.6 °F - 45.9 °F 87% 29.81 in 4.0 mi NNE 16.1 mph 28.8 mph N/A Thunderstorm Overcast
2:55 PM 50.0 °F - 46.4 °F 87% 29.81 in 3.0 mi NNE 15.0 mph 18.4 mph N/A Rain Light Rain
3:15 PM 50.2 °F - 46.9 °F 89% 29.80 in 3.0 mi North 11.5 mph - N/A   Overcast
3:35 PM 50.5 °F - 47.3 °F 89% 29.79 in 3.0 mi North 12.7 mph 18.4 mph N/A Thunderstorm Overcast
3:55 PM 50.9 °F - 47.5 °F 88% 29.79 in 5.0 mi North 15.0 mph - N/A   Overcast
4:15 PM 51.1 °F - 47.8 °F 89% 29.78 in 4.0 mi North 16.1 mph 20.7 mph N/A   Overcast
4:35 PM 51.1 °F - 47.8 °F 89% 29.78 in 4.0 mi North 18.4 mph - N/A   Overcast
4:55 PM 50.7 °F - 47.5 °F 89% 29.78 in 1.8 mi North 18.4 mph 25.3 mph N/A Rain Light Rain
5:15 PM 50.4 °F - 47.3 °F 89% 29.78 in 2.0 mi North 19.6 mph 26.5 mph N/A Rain Light Rain
5:35 PM 50.2 °F - 47.3 °F 90% 29.76 in 2.5 mi North 20.7 mph 29.9 mph 0.01 in Rain Light Rain
5:55 PM 50.2 °F - 47.3 °F 90% 29.77 in 2.0 mi North 18.4 mph 29.9 mph 0.07 in Rain , Thunderstorm Light Thunderstorms and Rain
6:15 PM 50.0 °F - 46.4 °F 87% 29.78 in 5.0 mi North 25.3 mph 34.5 mph N/A Rain Light Rain
6:35 PM 49.6 °F - 46.4 °F 89% 29.77 in 5.0 mi North 24.2 mph 34.5 mph N/A Rain Light Rain
6:55 PM 49.6 °F - 46.2 °F 88% 29.77 in 7.0 mi North 23.0 mph 31.1 mph N/A Thunderstorm Overcast
7:15 PM 49.5 °F - 45.9 °F 87% 29.79 in 10.0 mi North 24.2 mph 31.1 mph 0.01 in Rain Rain
7:35 PM 49.3 °F - 45.9 °F 88% 29.80 in 10.0 mi North 24.2 mph 33.4 mph 0.02 in Rain Light Rain
7:55 PM 49.3 °F - 45.7 °F 87% 29.82 in 10.0 mi North 23.0 mph 33.4 mph 0.02 in Rain , Thunderstorm Light Thunderstorms and Rain
8:15 PM 49.1 °F - 45.1 °F 86% 29.83 in 7.0 mi NNW 29.9 mph 38.0 mph 0.01 in Rain , Thunderstorm Light Thunderstorms and Rain
8:35 PM 48.6 °F - 45.0 °F 87% 29.85 in 10.0 mi North 21.9 mph 29.9 mph 0.01 in Rain , Thunderstorm Light Thunderstorms and Rain
8:55 PM 48.2 °F - 44.6 °F 87% 29.83 in 10.0 mi North 25.3 mph 35.7 mph 0.01 in   Overcast
9:15 PM 47.8 °F - 44.1 °F 87% 29.84 in 10.0 mi North 25.3 mph 38.0 mph N/A   Overcast
9:35 PM 47.7 °F - 43.9 °F 87% 29.84 in 10.0 mi North 21.9 mph 33.4 mph N/A   Overcast
9:55 PM 47.5 °F - 43.9 °F 87% 29.85 in 10.0 mi North 19.6 mph 32.2 mph N/A   Overcast
10:15 PM 46.9 °F - 43.3 °F 87% 29.86 in 10.0 mi North 25.3 mph 34.5 mph N/A   Overcast
10:35 PM 46.6 °F - 43.0 °F 87% 29.88 in 10.0 mi North 25.3 mph 33.4 mph N/A   Overcast
10:55 PM 46.4 °F 37.9 °F 43.0 °F 88% 29.88 in 10.0 mi North 25.3 mph 32.2 mph N/A   Overcast
11:15 PM 46.4 °F 38.3 °F 42.8 °F 87% 29.88 in 10.0 mi North 23.0 mph 32.2 mph N/A   Overcast
11:35 PM 46.4 °F 38.5 °F 42.8 °F 87% 29.89 in 10.0 mi NNW 21.9 mph 32.2 mph N/A   Overcast
11:55 PM 45.9 °F 37.6 °F 42.3 °F 87% 29.88 in 10.0 mi North 23.0 mph 34.5 mph N/A   Overcast